Location: Bay Harbour
(38.2612°N, 75.2555°W)
Time: 00:22:49
(UTC+00:00)

CORIOLIS - Pass Details

Date: 29 October 2020
Orbit: 819 x 838 km, 98.7° (Epoch: 03 December)

Event Time Altitude Azimuth Distance (km) Brightness Sun altitude
Rises 22:30:13 0° 162° (SSE) 3,333 7.3 -5.7°
Reaches altitude 10° 22:32:32 10° 161° (SSE) 2,405 6.5 -6.2°
Maximum altitude 22:37:52 80° 75° (ENE) 837 4.1 -7.2°
Drops below altitude 10° 22:43:14 10° 349° (N) 2,427 6.6 -8.2°
Sets 22:45:35 0° 349° (NNW) 3,366 7.3 -8.7°
